Probability
0 0 0 0 0 0 0 0 0 0 0 0 0 0 0 0 0 0 0 0 0 0 0 0 0 0 0 0 0 0 0 0 0 0 0 0 0 0 0 0 0 0 0
0 0 0 0 0 0 0 0 0 0 0 0 0 0 0 0 0 0 0 0 0 0 0 0 0 0 0 0 0 0 0 0 0 0 0 0 0 0 0 0 0 0 0
0 0 0 0 0 0 0 0 0 0 0 0 0 0 0 0 0 0 0 0 0 0 0 0 0 0 0 0 0 0 0 0 0 0 0 0 0 0 0 0 0 0 0
0 0 1 1 1 0 0 0 0 0 0 0 0 0 0 0 0 0 0 0 0 0 0 0 0 0 0 0 0 0 0 0 0 0 0 0 0 0 0 0 0 0 0
0 1 3 4 3 1 0 0 0 0 0 0 0 0 0 0 0 0 0 0 0 0 0 0 0 0 0 0 0 0 0 0 0 0 0 0 0 0 0 0 0 0 0
1 2 5 6 5 2 0 0 0 0 0 0 0 0 0 0 0 0 0 0 0 0 0 0 0 0 0 0 0 0 0 0 0 0 0 0 0 0 0 0 0 0 0
5 5 6 7 6 3 1 1 0 0 0 0 0 0 0 0 0 0 0 0 0 0 0 0 0 0 0 0 0 0 0 0 0 0 0 0 0 0 0 0 0 0 0
9 7 6 6 7 6 4 2 0 0 0 0 0 0 0 0 0 0 0 0 0 0 0 0 0 0 0 0 0 0 0 0 0 0 0 0 0 0 0 0 0 0 0
10 9 7 5 5 7 6 2 0 0 0 0 0 0 0 0 0 0 0 0 0 0 0 0 0 0 0 0 0 0 0 0 0 0 0 0 0 0 0 0 0 0 0
10 11 8 4 3 4 4 2 0 1 0 0 0 0 0 0 0 0 0 0 0 0 0 0 0 0 0 0 0 0 0 0 0 0 0 0 0 0 0 0 0 0 0
14 12 8 4 3 3 3 1 0 0 0 0 0 0 0 0 0 0 0 0 0 0 0 0 0 0 0 0 0 1 0 0 0 0 0 0 0 0 0 0 0 0 0
19 14 7 4 4 4 3 1 0 0 0 0 0 0 0 0 0 0 0 0 0 0 0 0 0 0 0 0 0 0 0 0 0 0 0 0 0 0 0 0 0 0 0
21 15 8 6 5 5 4 2 1 0 0 0 0 0 0 0 0 0 0 0 0 0 0 0 0 0 0 0 0 0 0 0 0 0 0 0 0 0 0 0 0 0 0
20 14 10 9 7 5 5 3 1 0 0 0 0 0 0 0 0 0 0 0 0 0 0 0 0 0 0 0 0 0 0 0 0 0 0 0 0 0 0 0 0 0 0
22 18 14 13 10 7 5 2 1 0 0 0 0 0 0 0 0 0 0 0 0 0 0 0 0 0 0 0 0 0 0 0 0 0 0 0 0 0 0 0 0 0 0
32 29 24 20 16 11 5 1 0 0 0 0 0 0 0 0 0 0 0 0 0 0 0 0 0 0 0 0 0 0 0 0 0 0 0 0 0 0 0 0 0 0 0
46 42 36 29 24 17 8 3 1 1 0 0 0 0 0 0 0 0 0 0 0 0 0 0 0 0 0 0 0 0 0 0 0 0 0 0 0 0 0 0 0 0 0
56 51 43 36 28 20 13 7 3 1 0 0 1 1 0 0 0 0 0 0 0 0 0 0 0 0 0 0 0 0 0 0 0 0 0 0 0 0 0 0 0 0 0
60 55 47 41 32 23 16 10 4 1 0 0 1 2 1 1 1 1 0 0 0 0 0 0 0 0 0 0 0 0 0 0 0 0 0 0 0 0 0 0 0 0 0
57 55 51 46 38 28 19 12 5 1 0 0 1 2 2 2 3 2 1 0 0 0 0 0 0 0 0 0 0 0 0 0 0 0 0 0 0 0 0 0 0 0 0
53 52 51 48 41 30 21 13 7 2 0 0 0 1 2 3 4 4 3 1 0 0 0 0 0 0 0 0 0 0 0 0 0 0 0 0 0 0 0 0 0 0 0
51 49 47 44 37 28 20 12 6 1 0 0 0 0 1 2 3 3 3 2 1 0 0 0 0 0 0 0 0 0 0 0 0 0 0 0 0 0 0 0 0 0 0
47 44 40 35 29 23 16 10 5 2 1 1 0 0 0 1 1 2 2 1 1 0 0 0 0 0 0 0 0 0 0 0 0 0 0 0 0 0 0 0 0 0 0
40 36 30 26 23 19 14 9 6 4 3 2 1 0 0 0 0 0 0 0 0 0 0 0 0 0 0 0 0 0 0 0 0 0 0 0 0 0 0 0 0 0 0
34 30 24 21 20 17 13 9 6 4 4 3 2 1 0 0 0 0 0 0 0 0 0 0 0 0 0 0 0 0 0 0 0 0 0 0 0 0 0 0 0 0 0
31 27 22 19 18 16 13 8 5 4 3 3 3 2 1 0 0 0 0 0 0 0 0 0 0 0 0 0 0 0 0 0 0 0 0 0 0 0 0 0 0 0 0
Wind_Speed
7 9 16 17 17 17 16 16 16 16 16 16 17 17 17 17 16 16 16 15 15 15 15 15 15 16 16 16 16 16 16 16 17 16 16 17 17 17 17 17 16 12 18
12 11 18 17 17 17 17 16 16 16 16 16 16 16 16 16 15 15 15 15 15 15 15 15 15 15 15 15 16 16 16 16 16 16 16 15 16 16 16 16 15 11 17
14 12 15 18 17 17 17 16 16 15 15 15 15 15 15 15 15 15 15 15 14 14 14 14 14 15 15 14 14 15 16 16 16 16 14 8 10 16 16 16 17 16 16
15 11 14 19 18 18 17 16 15 15 15 15 15 14 14 14 15 15 15 14 14 14 14 14 14 14 14 13 13 14 14 14 16 15 7 6 7 15 16 16 16 16 16
12 10 14 20 19 18 17 16 15 15 15 14 14 14 14 14 14 15 14 14 14 13 13 13 13 13 12 12 12 12 12 13 15 12 6 6 6 13 15 15 15 15 15
12 9 14 20 19 18 17 16 16 15 14 14 14 14 14 14 14 14 14 14 13 13 13 12 12 11 11 11 11 11 11 13 12 7 6 5 5 12 15 15 15 14 14
12 9 12 19 19 18 17 17 16 15 15 14 14 14 13 14 14 14 14 13 13 12 12 11 10 10 10 10 10 10 11 13 8 6 5 5 6 12 14 14 14 14 14
14 11 12 18 19 18 17 16 16 15 15 14 14 14 13 13 13 13 13 13 12 11 10 10 10 9 9 8 9 9 11 12 10 8 6 5 9 12 13 13 13 13 13
13 11 9 10 13 17 17 16 16 15 15 14 14 14 14 13 13 13 12 12 12 11 9 9 8 8 8 7 8 8 11 13 7 5 7 5 9 12 13 12 13 13 12
11 10 9 8 7 8 10 15 15 15 14 14 14 14 14 13 12 12 11 11 11 10 9 8 7 6 6 7 7 9 12 11 5 5 4 6 11 12 12 12 12 12 12
11 8 9 8 7 7 7 12 12 13 13 12 11 13 11 5 5 6 9 11 10 9 8 7 6 5 5 5 7 9 9 4 5 4 3 9 11 12 12 12 11 11 11
13 10 8 9 8 7 8 7 4 5 6 5 4 5 4 4 3 6 8 10 10 8 7 5 4 3 3 2 4 7 3 4 4 3 4 11 11 12 12 11 11 10 10
15 14 11 10 9 8 5 5 3 3 3 4 5 4 3 3 2 3 2 4 4 5 2 2 2 1 1 1 2 3 3 3 2 3 5 11 10 11 11 11 10 10 10
15 14 12 11 10 8 7 5 4 4 3 3 4 5 3 3 3 3 2 2 1 1 1 1 1 1 0 1 3 4 4 3 3 2 4 11 10 10 11 10 10 10 9
13 13 13 11 10 9 8 5 6 5 4 4 4 4 4 4 4 3 2 2 2 2 2 2 2 1 1 2 3 5 6 5 4 3 3 11 10 10 10 10 10 10 9
14 14 13 11 10 9 7 6 5 5 4 4 4 4 5 4 4 4 3 3 2 2 2 2 3 2 2 2 3 5 6 5 5 4 3 6 10 10 10 10 10 10 10
14 13 13 12 11 10 8 7 6 5 5 4 4 5 5 5 5 4 4 3 2 2 3 2 2 1 2 3 4 5 5 5 5 5 4 3 4 8 9 9 9 9 10
12 12 13 12 11 10 8 6 5 5 5 4 4 4 6 5 5 4 3 3 2 2 2 2 2 2 2 2 3 3 4 4 5 5 4 4 3 4 6 10 9 9 10
12 12 11 10 11 9 8 6 5 4 5 4 4 3 4 5 5 4 4 3 3 2 2 2 2 2 2 2 2 2 3 3 4 6 5 6 5 4 4 7 10 10 11
10 10 10 9 9 8 6 5 3 3 3 3 4 4 5 4 5 4 3 3 3 3 2 2 3 2 2 2 2 1 1 2 3 4 6 5 5 6 5 5 5 6 11
9 9 9 9 9 8 5 5 4 4 3 3 3 5 5 5 5 5 3 3 3 3 3 4 3 3 1 2 2 2 2 1 2 3 3 4 5 6 6 6 4 4 4
10 9 9 9 9 8 6 4 3 4 3 3 3 4 5 5 5 5 5 4 4 3 3 3 3 2 1 2 3 2 1 3 3 2 2 4 6 5 6 8 6 6 5
9 10 9 9 9 8 7 4 3 3 2 2 2 3 4 5 5 5 5 5 4 4 4 4 4 4 2 1 2 4 3 3 2 3 2 3 4 4 5 5 7 7 7
9 8 8 8 8 8 8 7 7 6 5 5 4 3 4 5 5 5 5 5 5 4 4 4 4 3 4 2 1 1 3 4 3 1 2 2 3 4 5 6 7 7 7
9 8 8 8 8 7 8 8 7 5 4 3 3 4 4 4 5 6 5 5 5 4 5 4 4 3 3 3 2 1 1 1 2 2 2 2 2 2 4 5 5 5 7
8 8 8 8 7 7 7 7 7 7 6 5 5 5 4 3 3 5 5 5 5 4 5 5 4 5 3 3 3 2 2 2 2 2 2 2 2 3 3 3 4 5 5
Wind_Direction
138 143 136 131 125 119 114 109 106 103 100 98 98 99 100 101 103 104 105 107 107 106 105 105 105 106 107 108 110 113 113 113 111 110 110 111 112 111 111 110 108 108 111
141 142 137 133 129 123 118 115 112 109 105 103 102 103 104 105 106 107 108 108 108 107 106 106 106 106 107 109 112 115 116 114 111 109 108 109 111 111 112 112 111 114 113
135 138 137 135 132 128 124 120 117 114 111 109 107 107 108 109 109 109 110 109 108 107 107 107 107 107 107 109 112 115 116 114 110 106 102 97 107 112 114 113 113 112 111
134 136 138 136 134 131 128 125 121 119 116 114 113 112 112 112 111 111 111 110 110 109 109 109 108 107 107 108 110 114 116 116 113 108 97 98 107 113 113 113 113 114 113
131 134 142 138 136 134 132 130 127 124 121 119 117 116 115 115 114 113 112 112 112 112 112 111 109 107 106 106 107 110 114 114 110 102 92 88 98 116 116 116 116 116 116
130 134 143 140 138 137 136 134 131 129 126 124 120 118 118 118 117 116 115 114 114 114 113 112 110 107 106 105 104 106 115 116 108 100 95 96 103 119 119 118 118 118 117
133 136 142 142 141 141 140 138 135 133 131 128 126 124 121 121 120 119 118 118 117 117 115 112 109 106 104 101 99 102 115 123 113 108 103 101 113 120 119 119 118 118 119
139 138 141 144 144 144 143 141 140 138 136 134 131 130 127 125 124 124 123 123 121 120 118 115 109 104 101 96 92 99 117 126 121 119 110 109 121 121 121 121 121 120 121
139 139 140 145 146 147 146 146 145 143 141 139 136 135 133 131 130 129 128 128 126 124 122 118 112 106 99 91 86 101 122 126 120 125 125 120 127 127 127 126 126 125 124
140 142 140 140 143 146 147 149 149 148 146 144 142 140 139 137 136 135 134 134 132 131 129 124 117 110 98 87 86 101 115 119 116 114 116 134 134 133 132 131 131 130 128
147 149 147 146 146 144 147 155 152 151 151 148 147 146 139 127 130 136 144 142 140 140 139 134 127 112 90 76 84 100 108 109 116 117 125 140 140 137 135 134 135 135 133
157 160 159 155 153 154 160 146 145 148 145 139 140 136 129 133 148 148 158 152 149 148 149 148 139 110 86 67 81 95 100 116 119 131 143 146 145 142 140 139 139 139 137
163 165 166 166 163 163 153 151 147 142 145 149 150 147 145 141 146 142 146 149 146 150 143 146 118 83 90 93 103 111 122 124 127 141 152 154 151 148 146 146 146 146 145
167 168 166 168 168 167 158 160 155 156 163 163 163 159 146 143 148 152 149 149 151 155 169 165 170 212 212 122 128 133 136 133 133 131 161 159 156 154 153 153 153 153 153
168 168 170 172 168 165 162 168 166 168 172 170 164 162 155 157 162 164 165 173 182 180 178 191 209 203 177 142 138 140 143 144 146 153 162 167 164 162 162 162 162 161 162
170 169 169 169 167 163 168 169 165 171 168 161 162 165 162 161 167 166 166 172 182 182 179 180 191 178 156 137 138 143 144 151 155 160 162 172 172 170 171 171 172 173 172
168 165 166 167 166 164 165 170 165 167 165 161 164 166 164 164 168 163 163 170 181 172 160 146 155 123 129 132 134 144 151 161 164 170 169 170 176 181 181 182 182 183 183
160 160 166 169 165 164 159 159 160 159 161 162 161 168 168 166 166 159 158 169 170 155 148 140 131 111 112 127 135 152 153 164 172 174 175 178 181 188 194 194 191 193 194
159 158 161 159 162 162 153 150 156 153 158 164 158 164 168 163 164 158 156 166 160 145 148 156 129 132 136 139 145 150 152 165 175 177 183 191 192 193 194 203 200 201 204
153 155 156 154 157 152 143 137 141 144 152 160 165 171 170 169 167 157 158 163 148 136 140 137 134 124 138 150 144 129 162 181 182 188 193 193 197 201 199 204 201 212 215
151 155 158 158 159 153 152 158 155 163 163 162 179 178 176 177 171 162 164 162 149 151 161 149 132 124 120 121 87 37 349 322 211 206 199 191 202 204 197 203 202 205 220
161 162 161 163 163 163 163 160 153 152 157 165 180 186 187 181 175 174 167 167 160 153 153 145 131 126 135 138 129 111 10 339 314 240 213 200 205 203 202 207 206 209 214
164 168 167 164 163 161 156 140 127 113 116 155 189 190 194 185 179 172 172 169 166 162 169 170 156 147 158 175 152 146 154 215 276 304 252 220 201 198 206 203 206 213 216
170 165 158 160 161 161 159 160 163 169 179 192 186 185 192 190 181 178 174 173 174 172 175 184 170 159 151 168 198 182 172 163 161 273 310 276 230 211 206 211 210 212 214
165 163 160 160 166 167 168 169 172 180 185 179 173 180 196 199 191 186 179 176 176 177 182 180 165 164 159 163 174 175 157 148 150 154 243 287 286 240 215 215 213 210 209
159 160 161 166 174 175 174 176 179 180 181 176 184 189 199 200 199 193 183 180 180 181 184 185 177 171 171 165 170 168 164 168 187 171 196 234 248 263 238 221 217 216 213